Weather History for Topeka, KS

Change the Weather History Date:

Tuesday, April 8, 2014

  Actual Average Record
Temperature  
Mean Temperature 49 °F 53 °F  
Max Temperature 63 °F 64 °F 88 °F (1905)
Min Temperature 35 °F 41 °F 20 °F (2007)
Degree Days  
Heating Degree Days 16 13  
Month to date heating degree days 136 112  
Since 1 July heating degree days 5168 4707  
Cooling Degree Days 0 1  
Month to date cooling degree days 0 1  
Year to date cooling degree days 0 4  
Growing Degree Days 3 (Base 50)    
Moisture  
Dew Point 29 °F    
Average Humidity 43    
Maximum Humidity 65    
Minimum Humidity 21    
Precipitation  
Precipitation 0.00 in 0.10 in 2.33 in (1922)
Month to date precipitation 0.28 0.82  
Year to date precipitation 2.67 5.49  
Snow  
Snow 0.00 in 0.00 in 6.50 in (1938)
Month to date snowfall 0.0 0.2  
Year to date snowfall 23.0 11.2  
Since 1 July snowfall 27.3 17.7  
Snow Depth 0.00 in    
Sea Level Pressure  
Sea Level Pressure 30.03 in    
Wind  
Wind Speed 11 mph (NW)    
Max Wind Speed 28 mph    
Max Gust Speed 35 mph    
Visibility 10 miles    
Events      
T = Trace of Precipitation, MM = Missing Value Source: NWS Daily Summary

Daily Weather History Graph

Daily Weather History Graph

Search for Another Location

Airport:

Trip Planner

Search our weather history database for the weather conditions in past years. The results will help you decide how hot, cold, wet, or windy it might be!

Date:

Astronomy

Apr. 08, 2014 Rise Set
Actual Time 6:56 AM CDT 7:53 PM CDT
Civil Twilight 6:28 AM CDT 8:20 PM CDT
Nautical Twilight 5:56 AM CDT 8:52 PM CDT
Astronomical Twilight 5:23 AM CDT 9:26 PM CDT
Moon 1:50 PM CDT (4/8) 3:06 AM CDT (4/8)
Length of Visible Light 13h 51m
Length of Day
12h 56m
Waxing Gibbous, 63% of the Moon is Illuminated
Apr 8
Waxing Gibbous
Apr 15
Full
Apr 22
Last Quarter
Apr 29
New
May 6
First Quarter

Hourly Weather History & Observations

Time (CDT) Temp. Windchill Dew Point Humidity Pressure Visibility Wind Dir Wind Speed Gust Speed Precip Events Conditions
12:53 AM 48.9 °F - 34.0 °F 56% 29.92 in 10.0 mi NW 8.1 mph - N/A   Clear
1:53 AM 46.0 °F 41.9 °F 35.1 °F 66% 29.92 in 10.0 mi WNW 8.1 mph - N/A   Clear
2:53 AM 46.0 °F 41.4 °F 35.1 °F 66% 29.93 in 10.0 mi NW 9.2 mph - N/A   Partly Cloudy
3:53 AM 45.0 °F 40.1 °F 34.0 °F 65% 29.93 in 10.0 mi WNW 9.2 mph - N/A   Clear
4:53 AM 45.0 °F 40.1 °F 33.1 °F 63% 29.93 in 10.0 mi NW 9.2 mph - N/A   Clear
5:53 AM 46.0 °F 41.9 °F 33.1 °F 61% 29.96 in 10.0 mi West 8.1 mph - N/A   Overcast
6:53 AM 44.1 °F 39.0 °F 34.0 °F 68% 29.99 in 10.0 mi WNW 9.2 mph - N/A   Mostly Cloudy
7:53 AM 45.0 °F 38.2 °F 34.0 °F 65% 30.02 in 10.0 mi WNW 15.0 mph - N/A   Partly Cloudy
8:53 AM 48.0 °F - 35.1 °F 61% 30.04 in 10.0 mi NNW 17.3 mph 25.3 mph N/A   Clear
9:53 AM 52.0 °F - 35.1 °F 53% 30.05 in 10.0 mi NNW 15.0 mph 26.5 mph N/A   Clear
10:53 AM 54.0 °F - 35.1 °F 49% 30.06 in 10.0 mi NW 17.3 mph - N/A   Partly Cloudy
11:53 AM 57.0 °F - 33.1 °F 40% 30.06 in 10.0 mi NNW 23.0 mph 29.9 mph N/A   Partly Cloudy
12:53 PM 57.9 °F - 32.0 °F 37% 30.06 in 10.0 mi NW 19.6 mph 27.6 mph N/A   Scattered Clouds
1:53 PM 61.0 °F - 28.9 °F 30% 30.06 in 10.0 mi NNW 21.9 mph 29.9 mph N/A   Partly Cloudy
2:53 PM 61.0 °F - 28.9 °F 30% 30.05 in 10.0 mi North 19.6 mph 29.9 mph N/A   Partly Cloudy
3:53 PM 62.1 °F - 26.1 °F 25% 30.04 in 10.0 mi NNW 15.0 mph 32.2 mph N/A   Clear
4:53 PM 62.1 °F - 25.0 °F 24% 30.04 in 10.0 mi NNW 12.7 mph 24.2 mph N/A   Clear
5:53 PM 61.0 °F - 21.9 °F 22% 30.05 in 10.0 mi NNW 13.8 mph - N/A   Clear
6:53 PM 59.0 °F - 19.0 °F 21% 30.06 in 10.0 mi North 12.7 mph - N/A   Clear
7:53 PM 53.1 °F - 21.0 °F 29% 30.09 in 10.0 mi North 8.1 mph - N/A   Clear
8:53 PM 51.1 °F - 19.9 °F 29% 30.11 in 10.0 mi NNW 4.6 mph - N/A   Clear
9:53 PM 48.9 °F - 21.0 °F 33% 30.13 in 10.0 mi Calm Calm - N/A   Clear
10:53 PM 43.0 °F - 23.0 °F 45% 30.12 in 10.0 mi Calm Calm - N/A   Clear
11:53 PM 39.9 °F - 26.1 °F 58% 30.12 in 10.0 mi Calm Calm - N/A   Clear